845  
FPUS82 KCHS 291512  
OPUCHS  
 
TEST   
..KCHS/KSAV GATEWAY OBSERVATIONS
 
TEST  
NATIONAL WEATHER SERVICE CHARLESTON SC  
1100 AM EDT MON MAY 29 2017  
 
NOTE: "FAIR" INDICATES FEW OR NO CLOUDS BELOW 12,000 FEET WITH NO  
SIGNIFICANT WEATHER AND/OR OBSTRUCTIONS TO VISIBILITY.  
 
SCZ050-WAZ558-NCZ071-TXZ119-213-PAZ071-DCZ001-FLZ074-172-MI076-  
NYZ176-178-MAZ016-IL014-TNZ027-NJZ106-GAZ044-MD014-291600-  
   
..GATEWAY OBSERVATIONS FOR CHARLESTON INTERNATIONAL
 
 
 
CITY SKY/WX TMP DP RH WIND PRES REMARKS  
CHAS AIRPORT MOSUNNY 86 68 54 NW10 29.98R  
SEATTLE FOG 53 51 93 SW7 30.08F VSB 1/2  
CHARLOTTE MOSUNNY 79 61 53 CALM 29.98R  
DALLAS DFW CLOUDY 78 64 61 NE3 30.07R  
DALLAS LOVE PTSUNNY 78 61 55 NE3 30.07R  
PHILLADELPHIA CLOUDY 59 56 89 E7 29.92R  
WASH NATIONAL PTSUNNY 70 66 87 SE5 29.89F  
BALTIMORE CLOUDY 64 63 96 VRB3 29.89S  
MIAMI MOSUNNY 88 72 58 VRB3 30.09R HX 94  
DETROIT MOSUNNY 72 56 57 S13 29.82S  
NEWARK LGT RAIN 58 54 86 E6 29.93R  
LAGUARDIA CLOUDY 59 53 80 E9 29.93R  
J F K LGT RAIN 58 55 90 E10 29.94R  
BOSTON LOGAN FOG 50 48 93 E14 30.03R VSB 1/2  
FT. LAUDERDALE MOSUNNY 86 73 65 E9 30.08R HX 93  
CHICAGO O'HARE MOSUNNY 72 45 37 W15G22 29.81R  
CHICAGO MIDWAY MOSUNNY 73 48 41 W17G24 29.82R  
HOUSTON BUSH CLOUDY 72 68 87 N5 30.04R  
HOUSTON HOBBY CLOUDY 74 71 91 CALM 30.04R  
NASHVILLE CLOUDY 74 65 73 CALM 30.02R  
ATLANTA MOSUNNY 78 66 66 W8 30.04R  
 

 
 
GAZ044-118-TXZ119-213-NCZ071-DCZ001-MDZ014-506-PAZ021-071-NJZ106-  
NYZ176-178-MAZ106-OHZ011-021-055-MIZ076-KYZ091-ILZ014-INZ047-  
MNZ060-ONZ431-291600-  
   
..GATEWAY OBSERVATIONS FOR SAVANNAH INTERNATIONAL
 
 
 
CITY SKY/WX TMP DP RH WIND PRES REMARKS  
SAVANNAH ARPT MOSUNNY 86 66 51 N8 30.01R  
ATLANTA MOSUNNY 78 66 66 W8 30.04R  
CHARLOTTE MOSUNNY 79 61 53 CALM 29.98R  
DALLAS DFW CLOUDY 78 64 61 NE3 30.07R  
HOUSTON BUSH CLOUDY 72 68 87 N5 30.04R  
WASH NATIONAL PTSUNNY 70 66 87 SE5 29.89F  
WASH DULLES PTSUNNY 73 64 73 VRB3 29.88F  
BALTIMORE CLOUDY 64 63 96 VRB3 29.89S  
PHILADELPHIA CLOUDY 59 56 89 E7 29.92R  
NEWARK LGT RAIN 58 54 86 E6 29.93R  
LAGUARDIA CLOUDY 59 53 80 E9 29.93R  
J F K LGT RAIN 58 55 90 E10 29.94R  
BOSTON FOG 50 48 93 E14 30.03R VSB 1/2  
PITTSBURG MOSUNNY 70 58 65 W9 29.90R  
AKRON SUNNY 72 54 53 W8 29.89S  
CLEVELAND MOSUNNY 74 57 55 SW8 29.87S  
CINCINNATI MOSUNNY 72 63 73 SW8 29.94S  
COLUMBUS SUNNY 74 60 61 W7 29.91S  
DETROIT MOSUNNY 72 56 57 S13 29.82S  
CHICAGO O'HARE MOSUNNY 72 45 37 W15G22 29.81R  
MINNEAPOLIS CLOUDY 58 46 64 NW14G22 29.80R  
INDIANAPOLIS MOSUNNY 72 58 61 W12 29.90S  
TORONTO CANADA PTSUNNY 72 59 64 W14 29.74R  
 

 
 
 
CLICK HERE TO GO TO PREVIOUS BULLETINS.

The Nexlab SC Page
The Nexlab GA Page Main Text Page